Regional Weather Roundup
Issued by NWS

Home | Current Version | Previous Version | Graphics & Text | Print | Product List | Glossary On
Versions: 1 2 3 4 5 6 7 8 9 10 11 12 13 14 15 16 17 18 19 20 21 22 23 24 25 26 27 28 29 30 31 32 33 34 35 36 37 38 39 40 41 42 43 44 45 46 47 48 49 50
000
ASUS43 KLSX 211807
RWRMO

WEATHER SUMMARY FOR MISSOURI
NATIONAL WEATHER SERVICE SPRINGFIELD MO
100 PM CDT MON AUG 21 2017

NOTE: "FAIR" INDICATES FEW OR NO CLOUDS BELOW 12,000 FEET WITH NO
       SIGNIFICANT WEATHER AND/OR OBSTRUCTIONS TO VISIBILITY.
       CURRENT SKY AND/OR WEATHER CONDITIONS ARE NOT AVAILABLE FOR
       CHILLICOTHE AND FARMINGTON.

MOZ001>031-035>038-043-044-053-054-211900-
...NORTHERN AND WESTERN MISSOURI...

CITY           SKY/WX    TMP DP  RH WIND       PRES   REMARKS
KANSAS CTY INT PTSUNNY   77  70  79 S5        30.05F
6HR MIN TEMP:  74; 6HR MAX TEMP:  83;

KANSAS C DTWN  SUNNY     80  72  76 W3        30.03F
6HR MIN TEMP:  73; 6HR MAX TEMP:  82; 6HR PCP:  0.09;

LEE`S SUMMIT   MOSUNNY   78  74  87 SE7       30.05F
6HR MIN TEMP:  69; 6HR MAX TEMP:  79; 6HR PCP:  0.30;

ST JOSEPH      LGT RAIN  74  72  93 SE6       30.04S
6HR MIN TEMP:  73; 6HR MAX TEMP:  81; 6HR PCP:  0.03;

CHILLICOTHE      N/A     72  72 100 NE5       30.08F
6HR MIN TEMP:  70; 6HR MAX TEMP:  79; 6HR PCP:  0.51;

KIRKSVILLE     TSTM      71  70  96 W8        30.11R VSB 3/4
6HR MIN TEMP:  70; 6HR MAX TEMP:  76; 6HR PCP:  0.91;


$$
MOZ066>068-077>081-088>096-101>105-211900-
...SOUTHWEST MISSOURI...

CITY           SKY/WX    TMP DP  RH WIND       PRES   REMARKS
SPRINGFIELD    SUNNY     85  74  69 S10       30.11F HX  92
6HR MIN TEMP:  72; 6HR MAX TEMP:  87;

JOPLIN         SUNNY     87  74  64 S9        30.08F HX  95
6HR MIN TEMP:  75; 6HR MAX TEMP:  90;

BRANSON        MOSUNNY   86  70  58 S6        30.14F HX  90

$$
MOZ032>034-039>042-045>050-055>058-069>072-211900-
...CENTRAL MISSOURI...

CITY           SKY/WX    TMP DP  RH WIND       PRES   REMARKS
COLUMBIA       CLOUDY    87  75  67 SW9       30.09S HX  96
6HR MIN TEMP:  72; 6HR MAX TEMP:  89;

JEFFERSON CITY PTSUNNY   88  75  65 SW6       30.06F HX  97
6HR MIN TEMP:  71; 6HR MAX TEMP:  89;

ROLLA          SUNNY     86  74  67 S9        30.12F HX  94
6HR MIN TEMP:  75; 6HR MAX TEMP:  89;

SEDALIA        MOSUNNY   85  78  80 N6        30.09F HX  96
6HR MIN TEMP:  75; 6HR MAX TEMP:  87;

WHITEMAN AFB   MOSUNNY   81  77  89 CALM      30.06F
WARRENSBURG    PTSUNNY   79  70  73 CALM      30.06F
OSAGE BEACH    SUNNY     87  73  62 S7        30.09F HX  94

$$
MOZ051-052-059>065-211900-
...EAST CENTRAL MISSOURI...

CITY           SKY/WX    TMP DP  RH WIND       PRES   REMARKS
ST LOUIS INTL  PTSUNNY   91  75  59 SW10      30.07F HX 101
6HR MIN TEMP:  78; 6HR MAX TEMP:  93;

SPIRIT OF STL  MOSUNNY   91  77  63 SW6       30.05F HX 104
6HR MIN TEMP:  73; 6HR MAX TEMP:  93;

ST CHARLES     MOSUNNY   89  77  67 N7        30.05F HX 101
6HR MIN TEMP:  72; 6HR MAX TEMP:  92;


$$
MOZ072>076-082>087-097>100-106>115-211900-
...SOUTH CENTRAL AND SOUTHEAST MISSOURI...

CITY           SKY/WX    TMP DP  RH WIND       PRES   REMARKS
CAPE GIRARDEAU SUNNY     89  76  65 CALM      30.10F HX 100
6HR MIN TEMP:  69; 6HR MAX TEMP:  90;

FARMINGTON     MOSUNNY   88  74  63 SW3       30.12F HX  96
6HR MIN TEMP:  72; 6HR MAX TEMP:  91;

POPLAR BLUFF   SUNNY     88  79  74 S6        30.10F HX 103
6HR MIN TEMP:  72; 6HR MAX TEMP:  90;

WEST PLAINS    SUNNY     86  73  65 SW3       30.15F HX  93
6HR MIN TEMP:  71; 6HR MAX TEMP:  88;


$$


USA.gov is the U.S. government's official web portal to all federal, state and local government web resources and services.